星链-37478(STARLINK-37478)

导读

STARLINK-37478(NORAD编号69260)是美国太空探索技术公司(SpaceX)星链(Starlink)星座的低轨通信卫星,隶属于全球卫星互联网项目。作为星链星座批量部署的卫星之一,该卫星运行于近地轨道(LEO),旨在为全球尤其是地面网络覆盖盲区提供高速低延迟互联网接入服务。星链项目计划组网数万颗低轨卫星,该卫星是星座规模化扩展中的一员,承担通信转发功能,服务个人、商业及特殊场景通信需求,同时也和其他星链卫星一同引发了关于太空拥堵和天文观测影响的讨论。

基本信息
目录编号:
69260
目录名称:
STARLINK-37478
国际标识:
2026-117Y
轨道中心:
EARTH
卫星名称:
星链-37478
卫星全名:
星链-37478(STARLINK-37478)
卫星状态:
在轨 (已飞行98 天)
发射日期:
2026-05-29 UTC
国别 :
美国 (US)
星等 :
--
轨道信息
数据来源 国际轨道数据 AOE轨道数据
星历时间 2026-09-03T13:46:17+0800
1天前
查看轨道信息
2026-08-30T07:00:00+0800
5天前
查看轨道信息
半长轴 6840.819km 6840.89km
偏心率 0.000141 0.0001297
轨道倾角 53.158° 53.159°
近地点辐角 89.211° 94.927°
升交点赤经 234.693° 254.712°
平近点角 270.906° 358.245°
近地点 461.717km 461.865km
远地点 463.647km 463.641km
周期 93.847分钟 93.849分钟
每日圈数 15.344073 15.343834
详细信息
固有亮度:
5
最大亮度:
2.5
卫星平台:
Starlink V1.0
覆盖范围:
全球
运营商:
太空探索技术公司
运营商所在国:
美国
制造商(研发单位):
太空探索技术公司
制造商所在国:
美国
使用方式:
暂无
卫星简介
Starlink 计划是 SpaceX 推出的全球卫星互联网项目,通过发射低轨道卫星,为全球尤其是偏远地区提供高速、低延迟的互联网服务。自 2019 年起,Starlink 已部署数千颗卫星,旨在缩小全球数字鸿沟,推动互联网普及。该项目还为军事、航空等行业提供通信支持,带来广泛经济效益。
2D轨道图
3D轨道图
轨道高度分析图
轨道倾角分析图
轨道综合分析图
查看轨道综合分析图
交会数据列表
事件ID 空间交会对象 最接近时刻(TCA) 交会距离 交会风险概率(CRP) 交会风险指数(CRI) 操作
CDM_260903-204005-469006-926022
OBJECT J (54690)
2026-09-03T
20:40:31+0000
1.818 km
极远距离
3.698739E-6 低风险 0.46
CDM_260903-190905-316506-926021
2026-09-03T
19:09:40+0000
2.409 km
极远距离
1.643694E-6 低风险 0.39
CDM_260903-230405-316506-926021
2026-09-03T
23:04:12+0000
2.479 km
极远距离
1.560409E-6 低风险 0.39
CDM_260904-065805-816906-926021
2026-09-04T
06:58:22+0000
2.476 km
极远距离
1.465071E-6 低风险 0.38
CDM_260903-125105-269806-926021
2026-09-03T
12:51:12+0000
2.802 km
极远距离
1.304747E-6 低风险 0.37
CDM_260904-043705-816906-926021
2026-09-04T
04:37:39+0000
2.860 km
极远距离
1.17333E-6 低风险 0.36
CDM_260905-105306-488106-926021
OBJECT F (64881)
2026-09-05T
10:53:03+0000
2.406 km
极远距离
1.086633E-6 低风险 0.36
CDM_260904-071205-179206-926022
2026-09-04T
07:12:24+0000
2.711 km
极远距离
6.062588E-7 极低风险 0.31